EHI
0 0 0 0 0 0 0 0 0 0 0 0 0 0 0 0 0 0 0 2 8 15 17 16 19 20 19 19 23 25 25 22 17 13 10 7 4 2 1 0 0 0 0 0 0 0 0 0 0
0 0 0 0 0 0 0 0 0 0 0 0 0 0 0 0 0 0 0 4 12 19 19 19 22 25 22 21 23 25 25 22 17 12 9 6 4 2 1 0 1 1 1 0 0 0 0 0 0
0 0 0 0 0 0 0 0 0 0 0 0 0 0 0 0 0 0 2 7 17 23 21 22 27 28 25 22 24 26 26 23 19 13 9 7 3 2 2 2 2 2 2 1 0 0 0 0 0
0 0 0 0 0 0 0 0 0 0 0 0 0 0 0 0 0 1 5 13 21 25 24 26 31 29 24 22 24 26 26 24 20 15 11 8 4 2 3 3 3 3 2 1 0 0 0 0 0
0 0 0 0 0 0 0 0 0 0 0 0 0 0 0 0 0 3 9 16 23 26 26 28 32 30 24 21 22 23 23 22 19 14 11 9 5 2 2 2 2 2 2 1 0 0 0 0 0
0 0 0 0 0 0 0 0 0 0 0 0 0 1 2 2 3 8 14 18 22 26 27 29 31 28 23 20 20 20 20 20 18 15 11 8 5 2 1 1 1 1 1 0 0 0 0 0 0
0 0 0 0 0 0 0 0 0 0 0 0 0 2 3 5 8 15 21 21 22 25 27 28 28 25 21 19 18 17 18 18 18 16 11 6 4 2 1 0 0 0 0 0 0 0 0 0 0
0 0 0 0 0 0 0 0 0 0 0 0 0 1 4 8 14 22 27 26 25 25 26 26 25 22 19 17 15 14 14 15 16 13 8 4 3 2 1 0 0 0 0 0 0 0 0 0 0
0 0 0 0 0 0 0 0 0 0 0 0 0 1 5 11 19 26 30 28 25 24 23 22 22 20 17 14 12 10 10 11 11 8 5 2 1 1 0 0 0 0 0 0 0 0 0 0 0
0 0 0 0 0 0 0 0 0 0 0 0 0 2 8 15 22 28 28 24 21 19 19 19 18 17 15 13 10 8 7 6 5 4 3 1 0 0 0 0 0 0 0 0 0 0 0 0 0
0 0 0 0 0 0 0 0 0 0 0 0 1 4 10 17 22 24 23 19 14 13 15 17 17 15 14 13 10 8 6 4 2 3 2 1 0 0 0 0 0 0 0 0 0 0 0 0 0
0 0 0 0 0 0 0 0 0 0 0 0 2 6 11 16 18 19 18 15 11 9 13 17 17 15 14 12 11 8 6 4 2 3 2 1 0 0 0 0 0 0 0 0 0 0 0 0 0
0 0 0 0 0 0 0 0 0 0 0 1 3 7 9 12 14 14 15 13 10 9 12 16 17 15 12 10 9 8 7 5 3 3 2 1 0 0 0 0 0 0 0 0 0 0 0 0 0
0 0 0 0 0 0 0 0 0 0 0 1 3 6 7 8 10 11 12 11 10 10 11 14 16 14 10 8 7 7 6 4 3 3 2 0 0 0 0 0 0 0 0 0 0 0 0 0 0
0 0 0 0 0 0 0 0 1 1 1 0 2 4 6 7 8 8 8 8 8 9 11 13 14 11 8 6 6 6 4 3 3 3 2 1 0 0 0 0 0 0 0 0 0 0 0 0 0
0 0 0 0 0 0 0 0 1 2 2 0 1 2 4 5 6 6 5 6 7 9 10 12 12 9 7 6 6 5 4 3 3 3 2 1 0 0 0 0 0 0 0 0 0 0 0 0 0
0 0 0 0 0 0 0 0 1 1 1 0 0 1 2 3 4 4 4 4 5 7 9 10 10 8 6 6 6 4 3 3 3 3 2 1 0 0 0 0 0 0 0 0 0 0 0 0 0
0 0 0 0 0 0 0 0 0 0 0 0 0 0 1 2 2 3 3 2 3 6 8 8 8 7 6 6 5 4 3 3 3 3 1 0 0 0 0 0 0 0 0 0 0 0 0 0 0
0 0 0 0 0 0 0 0 0 0 0 0 0 0 1 1 1 1 1 0 2 5 6 6 6 5 5 5 4 3 3 3 3 2 1 0 0 0 0 0 0 0 0 0 0 0 0 0 0
0 0 0 0 0 0 0 0 0 0 0 0 0 0 0 0 0 0 0 0 1 2 3 4 4 4 3 3 3 2 2 2 2 1 0 0 0 0 0 0 0 0 0 0 0 0 0 0 0
0 0 0 0 0 0 0 0 0 0 0 0 0 0 0 0 0 0 0 0 0 0 1 2 2 1 1 1 1 1 1 1 1 0 0 0 0 0 0 0 0 0 0 0 0 0 0 0 0
0 0 0 0 0 0 0 0 0 0 0 0 0 0 0 0 0 0 0 0 0 0 0 1 2 1 0 0 0 0 0 0 0 0 0 0 0 0 0 0 0 0 0 0 0 0 0 0 0
0 0 0 0 0 0 0 0 0 0 0 0 0 0 0 0 0 0 0 0 0 0 0 1 2 1 0 0 0 0 0 0 0 0 0 0 0 0 0 0 0 0 0 0 0 0 0 0 0
0 0 0 0 0 0 0 0 0 0 0 0 0 0 0 0 0 0 0 0 0 0 0 1 2 1 0 0 0 0 0 0 0 0 0 0 0 0 0 0 0 0 0 0 0 0 0 0 0
0 0 0 0 0 0 0 0 0 0 0 0 0 0 0 0 0 0 0 0 0 0 0 1 1 1 0 0 0 0 0 0 0 0 0 0 0 0 0 0 0 0 0 0 0 0 0 0 0
0 0 0 0 0 0 0 0 0 0 0 0 0 0 0 0 0 0 0 0 0 0 0 0 0 0 0 0 0 0 0 0 0 0 0 0 0 0 0 0 0 0 0 0 0 0 0 0 0
0 0 0 0 0 0 0 0 0 0 0 0 0 0 0 0 0 0 0 0 0 0 0 0 0 0 0 0 0 0 0 0 0 0 0 0 0 0 0 0 0 0 0 0 0 0 0 0 0
0 0 0 0 0 0 0 0 0 0 0 0 0 0 0 0 0 0 0 0 0 0 0 0 0 0 0 0 0 0 0 0 0 0 0 0 0 0 0 0 0 0 0 0 0 0 0 0 0
0 0 0 0 0 0 0 0 0 0 0 0 0 0 0 0 0 0 0 0 0 0 0 0 0 0 0 0 0 0 0 0 0 0 0 0 0 0 0 0 0 0 0 0 0 0 0 0 0
0 0 0 0 0 0 0 0 0 0 0 0 0 0 0 0 0 0 0 0 0 0 0 0 0 0 0 0 0 0 0 0 0 0 0 0 0 0 0 0 0 0 0 0 0 0 0 0 0
Wind_Speed
3 2 3 4 5 3 5 5 3 3 3 2 2 4 6 6 5 4 1 6 9 10 9 13 15 14 14 15 15 15 15 15 15 15 15 15 14 14 14 14 14 14 14 14 14 13 14 13 13
0 2 4 4 4 3 6 5 5 4 4 3 2 3 3 1 1 3 4 6 10 10 9 10 15 14 15 15 15 15 15 14 14 14 14 14 14 14 14 14 14 13 13 13 13 13 13 13 12
1 3 3 4 4 8 6 4 6 2 2 2 2 2 2 1 2 3 4 9 10 9 8 11 15 15 14 14 15 14 14 14 14 14 14 13 14 14 13 13 13 13 13 12 12 12 12 12 12
2 3 3 2 8 7 4 3 4 3 1 1 3 2 0 1 1 3 8 10 11 8 7 10 15 15 14 14 14 14 13 13 14 13 13 13 13 13 13 12 13 12 12 12 12 12 11 11 11
2 3 3 5 8 4 3 2 3 3 3 2 4 3 0 3 3 7 10 10 11 9 7 10 14 15 14 14 14 13 13 13 13 13 13 13 13 12 12 12 12 11 11 11 11 11 11 11 11
2 2 4 8 8 4 3 3 3 2 2 2 4 3 1 1 5 8 10 9 8 9 8 9 13 14 13 13 13 13 13 12 12 13 13 13 13 12 12 11 11 11 11 10 10 10 10 10 10
3 4 6 6 5 4 4 3 4 4 3 3 4 4 1 2 5 8 9 8 7 7 7 7 8 9 12 12 12 12 12 12 11 11 12 12 12 12 11 11 10 10 10 10 10 10 10 10 10
2 3 5 6 6 5 2 3 3 5 3 2 3 6 5 4 7 9 8 8 7 6 6 6 7 7 7 7 11 11 11 11 11 11 11 10 10 10 10 9 9 9 9 9 9 9 9 9 9
1 3 8 8 7 4 2 3 1 2 4 1 1 2 3 8 10 11 9 7 6 6 5 6 6 6 6 6 8 9 10 10 10 9 10 8 5 5 5 7 8 8 8 8 8 8 8 8 7
3 7 10 5 4 3 3 4 4 3 2 1 1 2 6 10 12 13 12 11 9 8 6 5 6 6 6 5 5 5 5 5 5 5 5 4 4 4 5 7 8 8 8 7 8 8 7 6 3
4 6 4 3 1 2 3 3 2 6 4 5 7 9 10 10 10 11 11 10 9 8 6 6 6 6 6 5 4 3 3 3 4 5 5 4 4 3 3 2 3 4 5 4 5 4 3 3 2
3 4 3 2 1 1 2 2 1 3 4 3 7 11 12 11 11 11 10 9 8 7 6 6 6 6 6 5 4 4 3 3 3 3 4 4 3 3 2 2 2 2 2 2 2 2 2 3 2
4 3 3 2 2 1 1 1 1 2 1 3 6 9 10 10 8 7 7 7 7 7 6 6 6 6 6 5 4 4 4 4 4 3 3 4 3 3 2 2 2 2 2 2 2 2 2 2 2
3 2 2 2 2 1 2 1 1 3 2 5 7 8 8 8 8 7 7 7 7 7 7 6 6 6 6 5 4 4 3 3 3 3 3 4 3 3 3 2 2 1 1 1 2 2 2 1 2
2 1 3 3 2 2 2 2 4 3 3 5 6 6 6 6 6 7 8 8 8 7 6 6 6 6 6 6 5 4 3 3 3 3 3 3 3 4 3 2 2 1 1 2 2 2 2 2 2
3 3 3 4 3 1 4 6 4 2 5 6 5 6 6 4 5 5 5 6 6 7 7 6 6 6 6 5 5 4 3 3 3 2 3 3 3 4 3 2 2 1 2 2 2 2 2 2 2
3 5 5 2 3 2 4 5 3 2 5 6 5 5 5 4 3 3 4 5 6 6 7 6 6 6 6 5 4 4 4 3 2 2 2 3 3 3 3 2 2 2 2 2 2 2 1 1 1
7 5 4 4 3 2 3 3 3 1 4 5 4 4 5 5 4 3 3 4 5 5 6 6 6 6 6 5 4 4 4 2 2 2 2 3 2 3 3 2 2 2 2 2 2 2 2 1 1
5 4 3 3 2 3 4 4 4 1 2 3 4 4 5 4 2 2 3 4 4 5 6 6 6 5 5 4 4 3 3 2 2 2 2 3 3 3 2 2 2 2 2 2 2 2 2 2 1
4 5 3 1 1 2 3 3 3 2 3 4 6 5 5 3 2 2 2 3 4 5 5 5 5 5 5 4 3 2 3 2 2 2 2 2 3 2 2 3 2 2 2 2 2 2 2 1 1
4 7 6 4 1 2 3 2 3 2 1 1 2 3 3 4 4 3 2 3 3 4 5 5 6 5 4 5 4 4 3 3 2 1 1 1 2 2 2 2 2 2 2 3 2 2 3 2 1
4 5 5 5 3 1 4 3 4 3 2 3 3 3 3 3 3 2 2 2 3 3 3 4 5 5 5 5 6 6 4 3 2 2 2 1 2 2 2 2 2 2 2 2 2 2 1 3 1
3 3 4 3 3 1 1 3 5 1 5 6 5 4 4 3 3 3 3 3 2 2 2 3 4 5 4 4 5 5 3 2 2 2 2 2 1 1 2 2 2 2 1 2 2 2 2 1 2
3 4 3 3 2 3 5 5 5 5 8 5 5 4 4 3 2 2 1 2 2 2 2 3 5 4 4 4 4 5 5 5 4 3 2 2 1 1 1 2 2 1 1 1 2 2 2 1 2
4 6 2 1 2 4 4 4 7 4 3 5 6 4 3 3 3 2 2 2 2 2 2 3 5 4 4 4 4 4 5 5 5 4 3 3 2 1 1 1 2 1 1 1 2 2 2 1 2
4 5 5 5 4 1 2 5 5 2 2 1 2 3 3 3 3 2 2 3 3 2 2 3 4 4 4 4 3 3 4 3 3 3 3 2 2 2 2 2 2 2 2 2 1 1 1 1 1
4 3 2 4 2 1 3 4 5 2 2 1 2 2 2 2 2 2 2 2 2 3 3 4 5 4 4 4 3 3 4 3 3 3 2 2 1 1 2 2 2 2 2 2 1 1 1 1 1
2 4 3 4 4 2 3 4 4 2 2 0 1 1 0 0 1 1 1 2 2 2 2 3 4 4 4 4 4 3 3 3 3 3 2 2 1 2 2 2 2 1 1 2 1 1 1 1 1
1 2 3 3 3 4 3 6 3 3 3 3 2 1 0 0 0 1 0 1 1 2 2 3 3 3 3 3 3 3 3 3 4 3 2 2 2 2 2 2 2 2 1 1 1 1 1 1 1
2 2 3 4 3 2 3 6 1 1 1 2 1 0 0 0 0 0 1 1 1 2 2 2 3 3 3 3 3 3 3 3 3 3 2 2 2 1 2 2 2 2 2 2 2 2 1 2 2
Wind_Direction
324 35 60 59 63 65 230 233 214 200 205 209 166 148 155 158 163 187 110 137 133 141 146 143 139 135 133 129 127 124 120 118 115 114 112 110 110 108 106 102 99 96 94 92 90 89 87 85 84
60 64 59 70 117 192 246 222 213 208 185 143 97 104 115 167 119 117 128 141 135 136 140 141 139 136 134 132 129 126 123 120 118 115 114 112 110 108 106 103 100 97 95 92 91 90 89 87 86
102 70 97 106 168 198 217 212 206 213 193 143 113 91 134 165 144 150 149 140 129 131 135 141 138 137 136 134 132 129 126 123 121 119 116 112 110 109 108 104 101 98 96 94 93 91 89 88 86
98 72 71 146 215 219 209 210 183 172 197 133 128 105 31 354 163 150 136 134 129 130 135 142 139 138 137 134 131 129 127 126 123 120 117 114 112 110 107 104 102 100 98 96 93 92 90 87 85
75 114 147 215 231 236 231 236 178 169 172 153 136 133 4 346 99 126 134 134 135 133 134 141 140 140 138 135 132 128 126 126 124 121 118 116 114 111 107 105 103 101 99 96 95 94 92 90 87
107 124 175 215 228 241 239 210 161 158 167 143 136 129 172 67 122 133 136 134 134 134 133 140 140 138 136 134 132 128 125 123 124 123 120 117 115 113 110 107 104 101 98 97 96 95 93 93 89
162 166 202 203 211 230 225 180 166 165 170 191 157 125 158 152 136 134 132 128 126 129 129 131 135 134 134 132 129 126 124 122 121 121 119 117 116 114 113 109 107 103 101 100 97 95 93 93 90
167 157 203 212 200 222 203 166 169 165 186 173 146 148 179 175 140 129 123 123 125 126 129 129 127 127 128 128 126 123 121 120 119 114 110 111 111 110 108 106 107 106 103 101 99 95 91 90 87
124 187 212 208 196 211 176 156 157 129 126 119 167 185 169 141 138 135 132 131 137 134 130 129 127 125 124 124 124 118 115 114 112 108 104 97 90 93 97 102 103 103 101 100 98 95 91 86 80
163 210 220 206 193 190 180 171 167 123 134 151 78 81 124 142 149 153 157 158 158 155 146 136 131 130 126 124 118 111 106 105 99 100 100 91 88 89 92 93 94 93 92 92 92 91 84 73 60
184 215 220 234 225 199 183 182 173 145 191 198 172 154 148 151 159 163 164 163 163 156 149 142 137 134 132 127 123 117 113 109 103 106 105 100 87 82 74 73 72 69 71 67 70 68 60 63 63
194 242 227 260 283 242 199 163 157 188 213 182 160 154 154 159 168 171 166 163 156 151 151 145 140 137 134 131 128 127 126 121 119 119 118 115 108 97 88 82 77 70 69 73 64 68 65 63 61
210 233 236 273 318 235 166 184 169 274 269 122 132 147 158 164 167 164 159 155 152 152 151 149 145 143 140 133 134 131 133 131 129 127 125 126 129 126 111 97 87 83 82 86 80 74 72 65 55
203 228 248 282 294 272 158 276 130 258 132 128 144 159 166 165 165 156 154 158 162 161 156 149 147 145 140 136 137 135 132 130 128 131 134 130 129 132 126 111 98 86 85 85 89 87 82 68 61
149 189 269 262 249 237 119 309 242 233 141 145 161 165 166 168 167 172 171 168 167 162 153 151 150 145 144 140 137 132 129 127 131 132 133 131 129 132 129 122 109 98 89 87 80 66 67 66 60
136 156 215 241 206 223 152 232 254 174 157 168 174 172 174 176 173 176 167 161 160 155 151 151 150 145 144 140 135 131 128 127 131 128 127 130 131 132 125 123 121 111 96 91 93 73 65 50 47
161 191 206 232 201 161 168 222 248 188 171 179 179 176 175 173 161 159 157 160 158 155 152 148 142 145 143 134 128 123 123 124 126 123 125 130 132 134 130 129 129 117 98 89 97 78 86 68 34
188 186 189 197 204 158 185 230 270 239 179 186 185 177 176 183 190 161 148 150 146 143 144 143 138 138 136 126 116 109 105 108 113 124 130 130 131 133 129 126 127 121 109 92 92 95 73 81 52
166 168 183 218 210 167 193 227 252 257 189 195 193 184 185 192 179 135 137 136 132 133 141 149 145 145 143 137 138 139 142 139 129 128 129 130 126 128 128 127 122 121 122 128 125 114 89 52 32
162 169 186 230 265 169 172 246 257 222 213 210 199 193 190 183 159 136 126 127 142 151 154 156 156 153 153 149 137 125 124 128 128 119 112 128 135 144 149 145 148 142 127 114 117 123 120 78 51
192 184 181 174 52 85 118 284 255 239 204 210 203 190 183 185 185 177 153 154 146 156 164 165 161 154 151 136 117 102 88 79 86 104 127 148 150 149 143 148 146 150 147 154 158 148 144 143 60
210 190 168 154 133 199 155 221 257 221 222 225 221 201 195 193 184 176 166 163 166 173 157 153 150 146 145 139 143 147 151 157 175 162 153 141 141 141 137 138 141 148 150 155 170 155 153 145 151
184 163 159 150 142 128 155 180 264 202 226 231 223 214 204 196 183 178 178 176 163 150 145 145 139 138 141 143 149 148 137 129 118 121 131 124 104 112 130 139 140 141 142 150 146 143 138 145 158
135 99 76 71 104 205 198 177 246 214 215 216 212 211 203 185 179 173 138 125 106 92 116 136 136 135 138 141 143 147 143 135 132 139 145 139 113 89 111 128 125 128 130 141 146 136 128 132 139
128 123 117 146 196 229 177 182 236 238 230 222 211 201 193 168 166 165 141 135 126 119 136 141 138 134 139 143 145 148 146 146 154 161 163 156 150 146 156 123 124 126 125 118 124 120 124 138 143
188 157 162 177 192 250 180 216 244 271 289 239 184 163 154 156 163 184 190 170 160 151 154 151 148 142 142 145 148 141 137 140 146 150 153 163 172 164 152 133 127 124 119 116 124 126 144 136 152
157 183 157 117 94 138 234 273 294 324 355 44 98 115 153 168 172 197 194 174 169 164 172 171 159 149 149 149 138 134 137 137 136 136 136 139 139 140 136 133 135 128 126 132 142 155 160 149 168
155 148 120 127 149 214 269 249 237 252 252 307 93 98 317 285 175 204 179 179 183 178 167 156 156 157 152 146 145 144 143 137 132 128 131 134 137 132 133 131 136 134 133 134 133 157 164 146 174
115 132 124 125 155 161 221 257 228 207 199 188 193 199 198 265 226 235 235 186 163 140 138 139 143 134 137 142 137 132 132 128 129 133 141 136 133 146 151 152 151 153 152 157 154 183 186 172 195
143 157 148 159 194 173 183 264 321 218 184 150 166 319 25 21 353 4 29 74 89 113 126 133 137 138 140 139 135 130 124 123 126 131 133 126 128 144 152 150 160 171 175 183 186 204 214 204 214